QPF
0.00 0.00 0.00 0.00 0.00 0.00 0.00 0.00 0.00 0.00 0.00 0.00 0.00 0.00 0.00 0.00 0.00 0.00 0.00 0.00 0.00 0.00 0.01 0.01 0.01 0.00 0.01 0.02 0.02 0.03 0.05 0.07 0.07 0.05 0.04 0.05 0.05 0.05 0.06 0.06 0.06 0.07 0.08 0.08
0.00 0.00 0.00 0.00 0.00 0.00 0.00 0.00 0.00 0.00 0.00 0.00 0.00 0.00 0.00 0.00 0.00 0.00 0.00 0.00 0.00 0.00 0.00 0.00 0.00 0.01 0.01 0.02 0.02 0.03 0.03 0.05 0.06 0.06 0.05 0.06 0.09 0.10 0.10 0.07 0.07 0.06 0.06 0.06
0.00 0.00 0.00 0.00 0.00 0.00 0.00 0.00 0.00 0.00 0.00 0.01 0.01 0.01 0.00 0.00 0.00 0.00 0.00 0.00 0.00 0.00 0.00 0.01 0.01 0.01 0.01 0.01 0.02 0.03 0.04 0.04 0.04 0.06 0.05 0.05 0.08 0.09 0.09 0.09 0.08 0.06 0.04 0.05
0.00 0.00 0.00 0.00 0.00 0.00 0.00 0.00 0.00 0.00 0.00 0.00 0.01 0.03 0.01 0.02 0.01 0.00 0.00 0.00 0.00 0.00 0.00 0.01 0.01 0.01 0.02 0.03 0.04 0.05 0.05 0.04 0.04 0.05 0.04 0.04 0.03 0.03 0.03 0.04 0.04 0.03 0.03 0.03
0.00 0.00 0.00 0.00 0.00 0.00 0.00 0.00 0.00 0.00 0.00 0.00 0.01 0.01 0.02 0.05 0.04 0.01 0.00 0.00 0.00 0.00 0.01 0.02 0.03 0.02 0.02 0.03 0.02 0.02 0.03 0.04 0.03 0.03 0.04 0.03 0.03 0.02 0.02 0.02 0.02 0.03 0.03 0.03
0.00 0.00 0.00 0.00 0.00 0.00 0.00 0.00 0.00 0.00 0.01 0.01 0.01 0.02 0.04 0.06 0.05 0.01 0.00 0.00 0.00 0.00 0.01 0.04 0.06 0.02 0.02 0.01 0.01 0.02 0.03 0.04 0.04 0.03 0.03 0.03 0.03 0.03 0.03 0.03 0.03 0.04 0.05 0.04
0.00 0.00 0.00 0.00 0.00 0.00 0.00 0.01 0.01 0.02 0.02 0.01 0.02 0.02 0.04 0.04 0.02 0.01 0.00 0.00 0.00 0.00 0.00 0.01 0.02 0.02 0.02 0.01 0.01 0.02 0.04 0.04 0.04 0.04 0.04 0.04 0.04 0.04 0.04 0.04 0.04 0.05 0.04 0.05
0.00 0.00 0.00 0.00 0.00 0.00 0.00 0.01 0.02 0.03 0.03 0.03 0.03 0.03 0.03 0.02 0.01 0.00 0.00 0.00 0.00 0.00 0.01 0.01 0.01 0.01 0.01 0.01 0.01 0.02 0.04 0.04 0.04 0.04 0.04 0.04 0.05 0.05 0.06 0.05 0.04 0.05 0.06 0.05
0.00 0.00 0.00 0.00 0.00 0.00 0.00 0.00 0.01 0.02 0.02 0.02 0.03 0.03 0.02 0.01 0.01 0.01 0.01 0.01 0.01 0.03 0.06 0.04 0.03 0.02 0.02 0.03 0.03 0.03 0.03 0.03 0.05 0.05 0.05 0.05 0.06 0.07 0.08 0.08 0.07 0.07 0.08 0.07
0.00 0.00 0.00 0.00 0.00 0.00 0.00 0.00 0.01 0.02 0.02 0.02 0.03 0.04 0.06 0.06 0.05 0.03 0.03 0.03 0.03 0.04 0.06 0.04 0.03 0.03 0.03 0.03 0.03 0.04 0.05 0.04 0.05 0.06 0.06 0.06 0.08 0.09 0.11 0.12 0.11 0.09 0.09 0.07
0.00 0.00 0.00 0.00 0.00 0.01 0.01 0.01 0.01 0.02 0.01 0.03 0.05 0.05 0.07 0.12 0.11 0.07 0.03 0.02 0.02 0.04 0.05 0.02 0.02 0.02 0.02 0.02 0.02 0.03 0.05 0.05 0.06 0.07 0.08 0.09 0.10 0.11 0.11 0.10 0.08 0.08 0.08 0.08
0.00 0.00 0.01 0.01 0.00 0.00 0.00 0.00 0.01 0.02 0.02 0.03 0.04 0.06 0.09 0.13 0.07 0.03 0.02 0.01 0.01 0.02 0.03 0.02 0.01 0.01 0.01 0.02 0.03 0.03 0.04 0.05 0.06 0.06 0.06 0.06 0.07 0.07 0.06 0.06 0.07 0.08 0.09 0.10
0.00 0.00 0.01 0.02 0.01 0.01 0.00 0.00 0.00 0.01 0.02 0.03 0.04 0.07 0.10 0.09 0.06 0.03 0.01 0.01 0.01 0.02 0.01 0.01 0.01 0.01 0.01 0.01 0.02 0.03 0.04 0.05 0.05 0.05 0.05 0.05 0.06 0.06 0.06 0.06 0.07 0.08 0.08 0.08
0.01 0.01 0.02 0.02 0.02 0.02 0.01 0.01 0.01 0.01 0.02 0.03 0.04 0.07 0.09 0.06 0.04 0.01 0.00 0.01 0.01 0.02 0.02 0.01 0.01 0.01 0.00 0.00 0.01 0.02 0.03 0.05 0.04 0.04 0.04 0.05 0.06 0.06 0.07 0.07 0.06 0.05 0.06 0.06
0.01 0.01 0.01 0.01 0.00 0.01 0.02 0.01 0.01 0.01 0.01 0.02 0.03 0.06 0.05 0.03 0.02 0.01 0.00 0.00 0.01 0.02 0.02 0.02 0.01 0.01 0.01 0.01 0.01 0.01 0.02 0.03 0.03 0.03 0.03 0.03 0.04 0.05 0.05 0.06 0.05 0.04 0.05 0.05
0.02 0.02 0.02 0.01 0.01 0.01 0.02 0.01 0.01 0.01 0.01 0.03 0.04 0.05 0.03 0.01 0.01 0.00 0.00 0.00 0.01 0.02 0.02 0.02 0.02 0.01 0.01 0.01 0.01 0.01 0.01 0.02 0.03 0.04 0.03 0.03 0.04 0.05 0.05 0.04 0.05 0.05 0.05 0.05
0.02 0.04 0.04 0.03 0.01 0.02 0.02 0.01 0.02 0.02 0.02 0.03 0.03 0.03 0.02 0.01 0.00 0.00 0.01 0.01 0.01 0.02 0.02 0.03 0.03 0.02 0.01 0.01 0.02 0.02 0.01 0.02 0.03 0.03 0.03 0.03 0.03 0.04 0.05 0.04 0.04 0.04 0.04 0.04
0.04 0.05 0.04 0.02 0.03 0.03 0.03 0.02 0.02 0.01 0.01 0.01 0.01 0.01 0.00 0.00 0.01 0.01 0.01 0.02 0.02 0.02 0.02 0.03 0.04 0.03 0.02 0.01 0.03 0.04 0.02 0.02 0.03 0.03 0.03 0.02 0.02 0.02 0.03 0.05 0.05 0.04 0.04 0.03
0.03 0.06 0.06 0.04 0.04 0.03 0.03 0.02 0.01 0.01 0.03 0.01 0.01 0.01 0.00 0.00 0.01 0.02 0.02 0.04 0.05 0.02 0.02 0.03 0.03 0.04 0.03 0.02 0.02 0.04 0.04 0.03 0.03 0.03 0.02 0.02 0.02 0.03 0.03 0.04 0.04 0.03 0.03 0.03
0.04 0.05 0.07 0.06 0.06 0.05 0.07 0.04 0.02 0.02 0.05 0.03 0.02 0.02 0.02 0.02 0.02 0.02 0.02 0.03 0.03 0.02 0.02 0.03 0.04 0.05 0.04 0.02 0.02 0.04 0.04 0.04 0.03 0.03 0.02 0.02 0.03 0.04 0.03 0.02 0.03 0.02 0.03 0.03
0.06 0.07 0.06 0.06 0.06 0.06 0.06 0.03 0.02 0.04 0.06 0.03 0.02 0.02 0.03 0.03 0.03 0.02 0.02 0.02 0.02 0.01 0.01 0.02 0.04 0.05 0.04 0.03 0.02 0.03 0.04 0.04 0.03 0.04 0.03 0.03 0.03 0.03 0.03 0.03 0.03 0.03 0.03 0.04
0.06 0.06 0.06 0.06 0.07 0.06 0.06 0.06 0.05 0.07 0.05 0.04 0.03 0.03 0.03 0.03 0.03 0.03 0.02 0.01 0.01 0.01 0.01 0.01 0.03 0.04 0.03 0.04 0.03 0.03 0.04 0.04 0.04 0.04 0.04 0.03 0.03 0.03 0.02 0.03 0.03 0.03 0.04 0.05
0.08 0.07 0.07 0.07 0.07 0.06 0.06 0.06 0.05 0.05 0.05 0.04 0.05 0.07 0.07 0.05 0.04 0.03 0.03 0.02 0.01 0.01 0.01 0.02 0.04 0.04 0.03 0.04 0.04 0.04 0.03 0.04 0.04 0.05 0.03 0.03 0.03 0.02 0.02 0.03 0.04 0.05 0.05 0.05
0.11 0.10 0.09 0.08 0.07 0.05 0.03 0.04 0.03 0.02 0.02 0.02 0.02 0.03 0.04 0.03 0.02 0.02 0.02 0.02 0.02 0.02 0.01 0.02 0.04 0.03 0.02 0.02 0.03 0.03 0.02 0.03 0.05 0.05 0.04 0.03 0.02 0.02 0.03 0.04 0.05 0.05 0.06 0.05
0.05 0.09 0.11 0.10 0.07 0.05 0.03 0.03 0.04 0.04 0.03 0.02 0.02 0.01 0.01 0.01 0.01 0.01 0.01 0.02 0.02 0.02 0.02 0.03 0.04 0.04 0.03 0.02 0.03 0.03 0.03 0.05 0.07 0.08 0.08 0.07 0.05 0.05 0.05 0.06 0.06 0.06 0.05 0.05
0.04 0.07 0.09 0.09 0.07 0.07 0.05 0.05 0.06 0.07 0.06 0.04 0.03 0.02 0.01 0.01 0.01 0.01 0.02 0.02 0.02 0.02 0.03 0.03 0.04 0.04 0.03 0.03 0.03 0.04 0.04 0.06 0.08 0.11 0.12 0.11 0.10 0.08 0.08 0.08 0.07 0.07 0.07 0.06
MSLP
1008.49 1008.84 1009.01 1009.02 1008.90 1008.72 1008.50 1008.29 1008.08 1007.83 1007.53 1007.14 1006.64 1006.05 1005.40 1004.76 1004.21 1003.81 1003.62 1003.67 1003.97 1004.49 1005.18 1005.98 1006.84 1007.70 1008.54 1009.33 1010.05 1010.71 1011.29 1011.80 1012.24 1012.62 1012.94 1013.20 1013.42 1013.61 1013.80 1013.99 1014.20 1014.41 1014.64 1014.87
1008.56 1008.73 1008.74 1008.64 1008.49 1008.33 1008.21 1008.13 1008.06 1007.96 1007.76 1007.43 1006.96 1006.34 1005.63 1004.89 1004.23 1003.72 1003.44 1003.40 1003.63 1004.09 1004.74 1005.52 1006.37 1007.25 1008.11 1008.93 1009.70 1010.42 1011.08 1011.67 1012.19 1012.63 1012.99 1013.27 1013.48 1013.65 1013.78 1013.92 1014.07 1014.25 1014.46 1014.70
1008.40 1008.39 1008.27 1008.10 1007.96 1007.89 1007.91 1008.00 1008.11 1008.16 1008.08 1007.82 1007.35 1006.68 1005.88 1005.02 1004.22 1003.57 1003.15 1003.00 1003.13 1003.52 1004.12 1004.86 1005.70 1006.57 1007.44 1008.30 1009.13 1009.92 1010.66 1011.35 1011.96 1012.48 1012.91 1013.23 1013.46 1013.63 1013.74 1013.85 1013.97 1014.13 1014.33 1014.58
1007.98 1007.83 1007.62 1007.45 1007.38 1007.44 1007.65 1007.95 1008.26 1008.48 1008.51 1008.30 1007.80 1007.06 1006.12 1005.10 1004.13 1003.30 1002.72 1002.42 1002.44 1002.73 1003.27 1003.97 1004.79 1005.67 1006.57 1007.47 1008.36 1009.23 1010.06 1010.85 1011.56 1012.18 1012.69 1013.09 1013.37 1013.57 1013.69 1013.80 1013.92 1014.07 1014.27 1014.52
1007.33 1007.09 1006.87 1006.75 1006.80 1007.05 1007.47 1007.99 1008.50 1008.88 1009.01 1008.82 1008.28 1007.42 1006.33 1005.12 1003.94 1002.91 1002.13 1001.68 1001.56 1001.75 1002.22 1002.89 1003.70 1004.59 1005.53 1006.49 1007.45 1008.41 1009.34 1010.23 1011.05 1011.77 1012.38 1012.86 1013.22 1013.47 1013.65 1013.78 1013.91 1014.07 1014.27 1014.52
1006.52 1006.26 1006.07 1006.05 1006.26 1006.71 1007.35 1008.09 1008.79 1009.30 1009.50 1009.31 1008.71 1007.72 1006.46 1005.05 1003.65 1002.41 1001.44 1000.81 1000.55 1000.65 1001.05 1001.70 1002.52 1003.44 1004.43 1005.46 1006.50 1007.54 1008.57 1009.56 1010.48 1011.30 1012.01 1012.58 1013.02 1013.35 1013.58 1013.76 1013.93 1014.11 1014.31 1014.55
1005.69 1005.44 1005.32 1005.42 1005.79 1006.42 1007.26 1008.17 1009.01 1009.61 1009.86 1009.65 1008.98 1007.88 1006.45 1004.86 1003.27 1001.83 1000.68 999.90 999.52 999.52 999.88 1000.51 1001.34 1002.31 1003.37 1004.47 1005.59 1006.72 1007.83 1008.90 1009.90 1010.81 1011.60 1012.26 1012.78 1013.19 1013.49 1013.73 1013.94 1014.14 1014.36 1014.59
1004.97 1004.76 1004.71 1004.92 1005.41 1006.17 1007.12 1008.14 1009.05 1009.70 1009.96 1009.72 1008.99 1007.80 1006.27 1004.54 1002.81 1001.23 999.94 999.04 998.55 998.49 998.80 999.43 1000.29 1001.30 1002.42 1003.60 1004.80 1006.00 1007.18 1008.31 1009.37 1010.34 1011.19 1011.91 1012.51 1012.98 1013.35 1013.65 1013.91 1014.14 1014.37 1014.59
1004.49 1004.31 1004.31 1004.57 1005.11 1005.91 1006.89 1007.92 1008.83 1009.47 1009.70 1009.44 1008.67 1007.44 1005.86 1004.08 1002.29 1000.64 999.27 998.29 997.74 997.63 997.91 998.54 999.42 1000.48 1001.65 1002.90 1004.16 1005.42 1006.65 1007.82 1008.91 1009.91 1010.79 1011.56 1012.20 1012.73 1013.16 1013.52 1013.82 1014.09 1014.33 1014.56
1004.35 1004.17 1004.17 1004.41 1004.91 1005.65 1006.55 1007.49 1008.32 1008.88 1009.06 1008.77 1008.00 1006.80 1005.25 1003.50 1001.73 1000.09 998.72 997.72 997.14 997.00 997.26 997.88 998.77 999.86 1001.08 1002.37 1003.68 1004.99 1006.24 1007.43 1008.54 1009.54 1010.44 1011.22 1011.89 1012.46 1012.94 1013.34 1013.69 1013.99 1014.25 1014.48
1004.56 1004.36 1004.31 1004.45 1004.83 1005.40 1006.12 1006.87 1007.53 1007.97 1008.07 1007.76 1007.03 1005.90 1004.47 1002.84 1001.18 999.63 998.32 997.35 996.77 996.62 996.86 997.46 998.34 999.44 1000.69 1002.01 1003.36 1004.68 1005.96 1007.16 1008.26 1009.26 1010.15 1010.94 1011.62 1012.21 1012.72 1013.15 1013.54 1013.87 1014.15 1014.40
1005.05 1004.81 1004.67 1004.68 1004.86 1005.20 1005.66 1006.16 1006.59 1006.86 1006.86 1006.54 1005.87 1004.87 1003.60 1002.16 1000.68 999.28 998.08 997.18 996.63 996.46 996.68 997.25 998.11 999.20 1000.44 1001.78 1003.14 1004.49 1005.77 1006.98 1008.08 1009.07 1009.95 1010.73 1011.41 1012.01 1012.54 1013.00 1013.41 1013.76 1014.06 1014.32
1005.70 1005.42 1005.19 1005.03 1004.99 1005.07 1005.24 1005.45 1005.63 1005.71 1005.61 1005.27 1004.67 1003.82 1002.75 1001.53 1000.27 999.06 998.00 997.18 996.67 996.50 996.69 997.22 998.03 999.09 1000.31 1001.64 1003.02 1004.37 1005.67 1006.88 1007.98 1008.97 1009.84 1010.62 1011.30 1011.90 1012.44 1012.91 1013.33 1013.70 1014.01 1014.27
1006.34 1006.05 1005.74 1005.45 1005.21 1005.03 1004.92 1004.84 1004.77 1004.66 1004.44 1004.09 1003.56 1002.85 1001.99 1001.00 999.96 998.95 998.05 997.33 996.86 996.68 996.84 997.31 998.07 999.08 1000.27 1001.59 1002.96 1004.33 1005.64 1006.86 1007.96 1008.95 1009.82 1010.59 1011.27 1011.87 1012.41 1012.89 1013.31 1013.68 1013.99 1014.24
1006.83 1006.56 1006.22 1005.84 1005.44 1005.06 1004.70 1004.38 1004.08 1003.79 1003.46 1003.08 1002.61 1002.03 1001.34 1000.57 999.74 998.92 998.16 997.54 997.12 996.95 997.06 997.48 998.19 999.14 1000.30 1001.59 1002.96 1004.33 1005.65 1006.89 1008.00 1009.00 1009.87 1010.64 1011.31 1011.90 1012.44 1012.91 1013.33 1013.69 1013.98 1014.21
1007.05 1006.84 1006.52 1006.11 1005.62 1005.09 1004.56 1004.04 1003.55 1003.10 1002.67 1002.25 1001.81 1001.33 1000.79 1000.19 999.55 998.90 998.28 997.75 997.38 997.23 997.32 997.70 998.35 999.26 1000.38 1001.65 1003.00 1004.37 1005.70 1006.95 1008.07 1009.07 1009.94 1010.70 1011.37 1011.95 1012.47 1012.93 1013.33 1013.67 1013.94 1014.15
1006.96 1006.83 1006.57 1006.17 1005.66 1005.05 1004.40 1003.74 1003.11 1002.53 1002.00 1001.53 1001.10 1000.67 1000.24 999.78 999.28 998.78 998.30 997.87 997.57 997.45 997.55 997.91 998.53 999.41 1000.49 1001.73 1003.07 1004.44 1005.77 1007.01 1008.14 1009.13 1010.00 1010.75 1011.40 1011.96 1012.46 1012.90 1013.28 1013.60 1013.85 1014.04
1006.58 1006.53 1006.34 1005.98 1005.48 1004.85 1004.13 1003.37 1002.63 1001.94 1001.32 1000.78 1000.33 999.93 999.56 999.20 998.84 998.47 998.12 997.82 997.61 997.56 997.70 998.08 998.70 999.56 1000.63 1001.85 1003.17 1004.51 1005.83 1007.06 1008.18 1009.16 1010.01 1010.74 1011.37 1011.91 1012.38 1012.80 1013.16 1013.46 1013.70 1013.87
1006.02 1006.02 1005.87 1005.55 1005.06 1004.41 1003.65 1002.83 1001.99 1001.20 1000.49 999.89 999.39 998.99 998.66 998.39 998.14 997.90 997.70 997.54 997.47 997.52 997.75 998.19 998.85 999.72 1000.78 1001.98 1003.28 1004.60 1005.88 1007.09 1008.18 1009.14 1009.96 1010.67 1011.27 1011.79 1012.24 1012.64 1012.99 1013.28 1013.52 1013.70
1005.40 1005.39 1005.24 1004.92 1004.42 1003.75 1002.94 1002.05 1001.13 1000.25 999.45 998.77 998.22 997.81 997.51 997.31 997.17 997.08 997.04 997.05 997.15 997.36 997.72 998.25 998.97 999.88 1000.95 1002.14 1003.40 1004.69 1005.94 1007.10 1008.16 1009.09 1009.89 1010.57 1011.15 1011.65 1012.09 1012.47 1012.81 1013.11 1013.36 1013.55
1004.84 1004.75 1004.53 1004.16 1003.61 1002.89 1002.02 1001.06 1000.05 999.08 998.20 997.45 996.85 996.43 996.16 996.03 996.01 996.08 996.23 996.44 996.74 997.13 997.65 998.31 999.12 1000.07 1001.16 1002.34 1003.57 1004.82 1006.02 1007.14 1008.15 1009.05 1009.82 1010.48 1011.05 1011.54 1011.97 1012.35 1012.70 1013.01 1013.28 1013.50
1004.39 1004.16 1003.83 1003.36 1002.73 1001.93 1000.98 999.94 998.86 997.81 996.85 996.04 995.41 994.99 994.76 994.72 994.83 995.07 995.41 995.83 996.34 996.94 997.63 998.42 999.33 1000.34 1001.44 1002.61 1003.81 1005.00 1006.15 1007.23 1008.20 1009.06 1009.81 1010.46 1011.02 1011.50 1011.94 1012.33 1012.69 1013.02 1013.32 1013.58
1004.04 1003.66 1003.19 1002.60 1001.86 1000.97 999.95 998.83 997.69 996.58 995.57 994.73 994.10 993.69 993.52 993.57 993.82 994.23 994.76 995.40 996.11 996.90 997.76 998.68 999.68 1000.73 1001.84 1002.99 1004.14 1005.28 1006.37 1007.39 1008.32 1009.15 1009.88 1010.52 1011.08 1011.58 1012.02 1012.43 1012.81 1013.16 1013.49 1013.78
1003.73 1003.21 1002.61 1001.91 1001.09 1000.12 999.05 997.89 996.71 995.58 994.57 993.73 993.11 992.75 992.65 992.81 993.19 993.75 994.46 995.28 996.18 997.13 998.13 999.15 1000.21 1001.29 1002.38 1003.48 1004.58 1005.65 1006.67 1007.63 1008.52 1009.32 1010.04 1010.67 1011.24 1011.74 1012.20 1012.63 1013.02 1013.39 1013.74 1014.06
1003.39 1002.77 1002.09 1001.33 1000.45 999.47 998.38 997.23 996.07 994.97 993.99 993.20 992.64 992.34 992.33 992.58 993.08 993.78 994.63 995.59 996.62 997.69 998.78 999.86 1000.94 1002.00 1003.06 1004.10 1005.11 1006.10 1007.04 1007.94 1008.77 1009.54 1010.24 1010.86 1011.43 1011.95 1012.42 1012.86 1013.26 1013.64 1014.00 1014.33
1002.94 1002.29 1001.60 1000.83 999.98 999.03 998.01 996.93 995.86 994.84 993.95 993.24 992.77 992.56 992.63 992.98 993.56 994.36 995.30 996.35 997.45 998.58 999.70 1000.79 1001.84 1002.85 1003.83 1004.78 1005.70 1006.59 1007.44 1008.26 1009.03 1009.75 1010.42 1011.03 1011.60 1012.12 1012.59 1013.03 1013.44 1013.83 1014.19 1014.53
Thickness
5797 5786 5782 5793 5803 5806 5807 5804 5805 5816 5834 5827 5819 5821 5827 5835 5833 5828 5825 5823 5821 5817 5819 5817 5813 5809 5803 5796 5791 5787 5782 5777 5773 5768 5764 5761 5759 5759 5758 5757 5755 5752 5749 5747
5784 5782 5799 5809 5812 5810 5804 5798 5803 5816 5831 5824 5816 5818 5830 5832 5828 5827 5824 5821 5819 5815 5813 5810 5807 5803 5797 5791 5787 5783 5779 5774 5770 5766 5764 5761 5759 5757 5756 5755 5752 5749 5746 5744
5779 5797 5813 5807 5803 5800 5800 5798 5800 5805 5816 5821 5811 5804 5816 5827 5828 5826 5826 5823 5821 5815 5809 5805 5801 5796 5792 5786 5784 5781 5776 5772 5768 5765 5761 5758 5755 5753 5751 5749 5747 5747 5744 5741
5790 5806 5808 5802 5799 5800 5792 5810 5809 5804 5794 5792 5797 5775 5799 5813 5813 5816 5818 5819 5817 5814 5810 5803 5796 5791 5786 5783 5782 5779 5774 5770 5766 5762 5757 5753 5749 5746 5747 5746 5745 5744 5742 5739
5787 5801 5801 5795 5801 5803 5801 5815 5808 5800 5791 5785 5787 5775 5786 5807 5799 5804 5813 5815 5814 5812 5808 5801 5794 5789 5785 5782 5778 5775 5771 5767 5764 5760 5755 5751 5748 5746 5745 5743 5741 5739 5738 5737
5792 5808 5808 5804 5809 5811 5810 5804 5799 5796 5787 5765 5778 5770 5770 5792 5797 5802 5810 5812 5811 5809 5805 5799 5794 5788 5783 5780 5775 5771 5766 5762 5760 5756 5753 5749 5746 5743 5740 5738 5736 5735 5734 5733
5776 5791 5805 5808 5794 5800 5798 5778 5758 5754 5753 5758 5780 5770 5768 5792 5804 5804 5804 5807 5807 5803 5799 5793 5787 5783 5779 5774 5770 5765 5760 5756 5754 5752 5749 5747 5744 5741 5737 5735 5733 5731 5729 5728
5759 5767 5793 5801 5792 5784 5787 5779 5752 5737 5738 5752 5769 5761 5775 5799 5804 5805 5804 5802 5799 5796 5793 5788 5785 5779 5774 5769 5764 5759 5754 5751 5749 5746 5745 5744 5741 5738 5735 5733 5730 5728 5726 5725
5759 5765 5796 5801 5802 5792 5778 5778 5786 5764 5755 5749 5756 5766 5781 5792 5791 5793 5793 5791 5789 5787 5785 5782 5778 5773 5769 5764 5759 5755 5750 5746 5744 5742 5740 5738 5736 5733 5731 5729 5727 5725 5724 5723
5764 5752 5776 5792 5795 5794 5790 5784 5774 5758 5738 5733 5746 5753 5757 5766 5769 5780 5780 5779 5781 5781 5778 5775 5771 5767 5763 5760 5755 5751 5746 5742 5740 5738 5736 5734 5731 5729 5727 5724 5722 5721 5719 5717
5761 5744 5755 5769 5767 5767 5773 5771 5767 5761 5755 5736 5729 5741 5769 5764 5767 5770 5775 5774 5775 5774 5771 5768 5765 5762 5758 5755 5751 5745 5741 5738 5735 5733 5731 5729 5726 5724 5721 5719 5717 5716 5714 5711
5751 5742 5735 5750 5772 5781 5775 5768 5760 5739 5738 5746 5736 5736 5770 5766 5766 5767 5768 5770 5770 5768 5766 5763 5760 5757 5752 5748 5744 5740 5736 5733 5730 5728 5726 5723 5721 5718 5715 5713 5712 5711 5708 5706
5737 5725 5713 5725 5742 5757 5757 5761 5760 5753 5743 5736 5729 5729 5760 5761 5759 5762 5763 5763 5761 5759 5758 5755 5752 5748 5745 5742 5739 5735 5732 5729 5726 5723 5720 5717 5715 5712 5709 5708 5707 5705 5703 5701
5730 5717 5708 5704 5718 5733 5736 5745 5752 5744 5728 5725 5729 5731 5742 5749 5750 5752 5753 5753 5751 5749 5747 5745 5742 5740 5738 5735 5733 5730 5727 5724 5722 5718 5715 5711 5708 5706 5704 5703 5701 5700 5698 5695
5720 5708 5713 5720 5730 5733 5733 5735 5739 5735 5732 5725 5728 5730 5735 5742 5744 5746 5748 5746 5743 5740 5738 5735 5733 5731 5730 5727 5725 5724 5721 5718 5716 5712 5708 5706 5704 5702 5700 5697 5696 5694 5691 5690
5710 5700 5704 5708 5721 5726 5723 5729 5731 5732 5732 5728 5727 5727 5740 5744 5741 5739 5737 5734 5731 5730 5729 5727 5725 5723 5721 5718 5717 5716 5714 5712 5708 5704 5701 5700 5698 5696 5694 5691 5689 5687 5685 5683
5697 5690 5686 5691 5709 5711 5702 5716 5721 5722 5726 5725 5717 5722 5732 5729 5727 5726 5724 5723 5718 5719 5719 5718 5716 5714 5713 5711 5710 5708 5707 5705 5701 5698 5696 5694 5692 5690 5688 5687 5684 5681 5678 5676
5689 5682 5680 5684 5688 5676 5702 5724 5724 5720 5720 5723 5721 5721 5722 5718 5718 5717 5715 5711 5707 5708 5709 5708 5707 5706 5706 5706 5703 5701 5699 5696 5694 5692 5690 5688 5686 5684 5682 5680 5678 5675 5673 5670
5694 5681 5673 5674 5673 5681 5696 5711 5712 5708 5701 5711 5709 5711 5712 5711 5709 5705 5706 5703 5698 5700 5701 5700 5699 5699 5698 5697 5696 5693 5691 5689 5687 5686 5684 5683 5681 5678 5675 5673 5671 5669 5667 5665
5692 5684 5670 5668 5661 5664 5679 5705 5716 5709 5689 5699 5700 5698 5698 5698 5687 5689 5696 5694 5692 5694 5693 5691 5691 5690 5688 5688 5688 5685 5683 5682 5680 5680 5679 5678 5676 5673 5670 5668 5666 5664 5662 5660
5669 5667 5664 5662 5659 5663 5681 5696 5701 5677 5672 5688 5690 5688 5687 5685 5683 5685 5688 5687 5686 5685 5685 5685 5682 5680 5680 5680 5680 5677 5676 5675 5675 5675 5674 5673 5671 5668 5666 5664 5661 5659 5657 5655
5659 5655 5655 5656 5652 5652 5674 5679 5668 5666 5678 5683 5683 5682 5679 5677 5679 5678 5679 5678 5678 5678 5676 5676 5674 5673 5673 5673 5672 5669 5668 5669 5670 5669 5667 5666 5664 5662 5661 5657 5655 5653 5650 5648
5652 5649 5646 5646 5647 5657 5662 5663 5666 5670 5670 5674 5674 5674 5672 5669 5669 5669 5669 5668 5669 5669 5668 5667 5666 5664 5664 5665 5664 5661 5661 5662 5662 5660 5658 5657 5656 5655 5654 5651 5648 5646 5644 5642
5644 5647 5639 5636 5644 5650 5655 5658 5662 5664 5665 5666 5666 5666 5665 5662 5662 5661 5660 5660 5659 5659 5658 5658 5657 5656 5656 5657 5658 5657 5656 5656 5654 5651 5650 5649 5648 5647 5646 5644 5643 5640 5638 5636
5630 5632 5628 5626 5633 5639 5643 5647 5650 5653 5657 5658 5659 5660 5657 5655 5654 5653 5652 5652 5651 5650 5649 5649 5648 5647 5648 5649 5648 5649 5649 5647 5645 5643 5642 5641 5641 5641 5639 5637 5635 5634 5632 5630
5622 5619 5617 5617 5625 5626 5630 5639 5643 5643 5647 5650 5650 5650 5650 5649 5647 5646 5645 5644 5643 5642 5641 5641 5640 5640 5640 5641 5640 5640 5640 5638 5637 5635 5634 5634 5634 5633 5632 5630 5628 5626 5625 5622